Wetbulb
64.37 64.26 63.69 62.53 63.58 62.45 61.33 61.12 58.20 54.35 55.35 57.71 58.14 61.06 62.05 61.95 59.99 59.25 60.87 51.95 49.74 50.61 51.41 52.98 55.15 56.89 56.79 57.03 57.32 58.08 58.65 58.92 58.97 58.93 59.19 59.45 59.94 60.42
64.76 64.09 63.70 64.15 63.84 62.66 61.80 61.27 60.15 58.17 55.28 58.51 59.22 59.65 61.87 61.74 59.75 60.99 61.31 54.22 49.40 48.69 49.04 50.39 51.98 54.07 54.74 54.90 55.16 55.47 56.35 56.99 57.38 57.50 57.94 58.35 58.99 59.31
63.96 63.98 63.40 63.37 62.77 62.45 62.38 62.26 61.14 60.42 57.46 58.95 59.86 59.64 59.20 59.41 59.40 59.78 59.93 60.39 57.53 48.13 48.13 48.76 49.43 50.84 51.49 52.03 52.23 52.95 53.57 54.23 54.94 55.76 56.58 57.47 58.26 58.99
62.26 62.21 62.53 62.93 62.99 62.65 61.93 61.30 61.04 60.84 59.75 57.59 58.82 57.52 57.69 58.85 60.85 58.94 59.29 59.95 60.30 51.46 47.84 47.62 48.25 48.40 48.94 49.34 49.62 50.02 50.56 51.08 51.63 52.49 53.50 54.82 56.15 57.53
50.87 47.85 58.19 61.65 60.97 61.28 61.40 61.06 61.47 61.37 60.66 59.57 58.31 58.46 58.49 58.57 58.14 57.37 57.63 58.82 59.41 55.09 47.19 46.55 47.06 47.98 47.88 47.93 48.49 48.96 49.25 49.35 48.52 48.94 49.23 50.10 51.51 53.45
41.86 42.40 44.47 42.07 39.86 46.90 58.22 60.19 60.39 60.13 59.66 58.62 58.11 57.71 57.28 56.94 57.84 56.81 54.88 57.31 56.65 57.43 51.04 49.45 48.27 47.95 47.33 46.82 47.02 47.19 47.11 47.78 47.98 46.92 46.11 45.54 46.25 48.29
37.34 38.11 41.48 39.45 38.36 37.55 39.77 41.56 52.00 59.31 58.86 57.97 57.11 56.58 56.01 54.68 55.33 55.93 54.91 54.73 55.93 53.21 51.18 50.60 50.04 50.22 49.52 46.08 48.56 46.81 46.35 46.30 46.19 46.03 45.48 44.70 44.13 44.87
33.78 34.28 36.38 35.72 35.05 35.24 36.30 37.20 38.68 43.63 53.71 56.78 56.34 55.51 56.18 55.88 55.55 55.03 54.00 52.95 51.02 51.96 51.51 44.63 46.21 46.08 44.78 47.71 45.32 44.31 44.25 44.40 45.14 45.67 45.52 44.92 44.62 42.87
31.42 31.34 31.96 33.17 32.89 33.65 35.12 38.49 40.74 40.77 38.33 47.46 53.89 56.80 56.61 56.67 55.73 54.39 54.15 53.85 52.97 51.18 49.48 40.50 38.61 36.50 38.46 40.20 40.99 41.62 42.08 42.41 42.77 42.79 42.80 42.48 41.77 41.23
31.90 31.29 30.43 30.73 31.38 31.81 33.78 35.31 37.96 36.83 36.13 36.53 36.56 39.28 43.12 53.80 56.13 55.63 55.30 53.86 42.44 42.44 47.49 39.23 34.16 32.18 33.83 36.89 39.81 40.35 40.28 40.50 40.71 40.56 40.37 39.64 38.56 38.02
30.98 31.17 30.44 30.02 31.31 32.25 30.51 30.11 31.43 33.70 35.37 35.76 35.11 34.64 33.99 34.14 34.15 48.74 52.39 45.79 34.90 36.89 34.19 35.82 31.77 30.66 31.76 31.76 34.84 38.40 38.27 38.12 37.79 37.63 37.23 36.86 36.27 35.73
29.97 30.09 30.78 30.29 30.49 30.69 29.26 28.20 26.31 27.44 30.37 32.04 33.06 33.15 32.74 32.21 31.36 32.26 32.23 48.13 42.13 33.61 34.73 33.77 31.35 31.24 28.65 31.02 31.77 33.09 34.54 35.74 35.98 36.28 36.11 35.89 34.91 33.22
28.58 28.87 29.72 30.85 30.61 30.78 30.10 28.91 28.27 27.97 27.38 27.77 28.11 28.35 29.88 30.22 29.93 29.95 31.20 31.50 33.42 34.35 35.03 34.01 31.86 31.52 30.20 27.54 29.38 31.16 32.33 32.59 33.10 33.79 34.63 34.16 33.60 32.67
27.61 29.62 29.79 30.77 31.26 30.92 29.17 30.22 30.21 28.34 27.68 26.35 25.74 25.31 25.61 26.57 27.84 29.05 29.55 29.49 30.89 30.96 34.91 33.83 33.27 32.34 28.01 25.03 24.27 27.19 28.62 30.86 31.32 29.85 30.50 32.15 32.06 31.26
28.35 29.97 29.99 30.40 30.03 29.24 29.96 29.25 27.64 27.72 26.87 25.55 25.69 25.84 26.61 27.76 29.01 28.92 29.33 29.22 28.70 28.42 30.62 32.17 33.07 31.89 32.54 26.82 23.39 24.74 24.93 26.07 28.95 28.44 28.74 28.16 27.94 28.93
27.37 28.02 27.39 27.63 27.04 25.67 26.65 27.06 26.19 26.16 26.42 25.95 25.11 26.53 28.71 28.52 27.93 28.44 26.08 26.94 24.91 24.89 27.82 28.99 29.20 29.10 26.21 26.12 25.20 24.12 24.18 22.53 26.23 26.88 27.06 27.32 27.93 29.02
25.30 24.29 22.90 23.04 23.49 23.34 23.89 24.14 25.23 25.09 24.46 25.28 25.59 25.36 26.03 26.46 27.04 28.20 27.33 25.43 23.21 22.89 23.21 25.74 27.87 27.79 26.99 26.13 22.94 24.00 23.39 23.89 25.67 26.11 26.42 25.45 27.22 28.47
21.38 18.96 18.43 18.72 19.11 20.31 20.06 21.91 23.11 23.00 24.86 25.42 24.45 24.34 24.45 24.31 25.26 26.76 26.81 25.60 24.73 24.71 23.89 25.10 25.06 24.22 24.43 24.90 28.51 23.90 24.48 24.54 26.31 27.48 27.23 25.19 25.31 28.05
17.05 17.79 16.92 16.83 17.12 18.07 18.82 19.32 20.84 22.65 24.60 24.18 24.79 24.00 23.42 23.19 22.79 23.24 24.38 23.91 23.04 22.70 22.93 24.84 26.57 23.22 19.35 17.08 22.81 29.53 24.31 25.21 25.96 25.99 26.85 25.97 24.61 26.11
15.62 15.28 14.44 14.53 15.38 16.17 17.33 18.13 19.35 20.09 21.12 23.25 22.88 23.79 24.55 22.96 22.13 21.89 22.23 21.87 21.42 21.45 21.34 23.21 24.16 23.44 21.11 19.21 16.82 19.57 28.11 25.53 24.22 23.22 23.00 23.84 24.27 27.29
13.86 13.96 14.74 14.18 13.24 13.97 14.41 16.07 17.68 17.52 17.95 18.37 21.61 21.70 22.75 23.31 22.18 22.35 22.22 21.46 21.08 20.66 19.05 20.02 23.17 25.03 23.85 23.40 17.83 16.43 19.24 25.45 25.36 24.56 24.41 22.45 21.69 21.85
12.26 12.66 13.13 13.87 12.31 12.02 11.99 12.93 14.64 14.89 14.90 15.32 16.04 20.38 21.35 21.59 21.30 20.90 21.14 21.09 20.54 20.59 21.03 22.85 25.06 26.13 22.98 19.57 16.61 16.30 16.98 18.98 22.10 22.35 21.51 20.78 19.91 20.05
11.44 11.46 11.84 10.37 9.98 9.58 11.10 10.62 11.55 11.43 12.11 13.07 14.04 15.43 19.65 19.90 20.27 20.05 20.46 20.26 20.83 20.69 20.90 20.61 22.50 23.71 22.64 20.69 18.94 18.07 17.27 17.60 18.88 18.67 18.21 20.27 19.92 20.28
MSLP
1008.46 1008.50 1009.07 1009.18 1009.18 1009.23 1008.89 1008.67 1009.34 1010.22 1009.91 1009.47 1009.81 1009.84 1010.01 1010.36 1010.92 1011.46 1011.95 1012.48 1012.94 1013.40 1013.85 1014.20 1014.72 1015.14 1015.64 1016.30 1016.86 1017.50 1017.95 1018.41 1018.92 1019.35 1019.89 1020.38 1020.80 1021.24
1008.06 1007.90 1008.11 1008.08 1008.22 1008.26 1008.08 1008.25 1007.97 1008.70 1008.83 1008.31 1008.53 1008.82 1009.19 1009.53 1010.02 1010.49 1010.91 1011.41 1012.10 1012.63 1013.09 1013.50 1013.92 1014.51 1014.90 1015.49 1015.98 1016.66 1017.17 1017.61 1018.12 1018.64 1019.11 1019.57 1020.01 1020.36
1007.78 1007.40 1007.27 1007.26 1007.35 1007.60 1007.70 1007.55 1007.90 1008.10 1008.11 1007.67 1008.13 1008.15 1008.55 1008.94 1009.40 1009.79 1010.10 1010.64 1011.22 1011.84 1012.17 1012.66 1012.95 1013.51 1014.05 1014.59 1015.15 1015.77 1016.32 1016.81 1017.26 1017.79 1018.30 1018.78 1019.17 1019.55
1007.93 1007.59 1007.07 1006.86 1006.98 1007.07 1007.31 1007.45 1006.41 1007.40 1007.59 1007.41 1007.28 1007.99 1008.27 1008.17 1008.59 1009.22 1009.58 1009.93 1010.31 1010.91 1011.28 1011.73 1012.02 1012.49 1013.18 1013.75 1014.29 1014.82 1015.44 1015.89 1016.37 1016.92 1017.41 1017.84 1018.16 1018.57
1009.65 1009.38 1008.14 1007.37 1006.97 1007.01 1007.03 1006.77 1006.36 1006.90 1006.78 1006.86 1006.05 1007.03 1007.53 1007.57 1007.93 1008.60 1008.96 1009.31 1009.49 1009.78 1010.18 1010.48 1011.00 1011.48 1012.24 1012.86 1013.54 1014.15 1014.66 1015.13 1015.45 1015.97 1016.42 1016.85 1017.29 1017.64
1011.51 1010.85 1010.74 1010.20 1009.90 1008.69 1007.31 1006.82 1006.63 1006.51 1006.29 1006.25 1006.18 1006.29 1006.65 1006.91 1007.20 1007.85 1008.36 1008.61 1008.80 1009.03 1009.43 1009.69 1010.19 1010.48 1011.17 1011.98 1012.60 1013.34 1013.96 1014.61 1014.78 1015.12 1015.66 1016.05 1016.40 1016.76
1012.49 1011.83 1011.98 1011.88 1011.05 1010.51 1009.76 1008.45 1007.36 1005.95 1005.72 1005.39 1005.46 1005.69 1005.77 1006.23 1006.40 1006.67 1007.30 1007.94 1008.01 1008.44 1008.95 1009.35 1009.69 1009.93 1010.48 1011.17 1011.73 1012.45 1013.12 1013.58 1013.94 1014.44 1014.86 1015.24 1015.62 1015.89
1013.74 1012.84 1013.08 1011.91 1010.69 1010.03 1008.84 1008.69 1008.67 1007.81 1006.35 1005.52 1005.34 1004.99 1004.80 1004.92 1005.40 1005.91 1006.55 1006.94 1007.43 1007.61 1008.32 1009.20 1009.28 1009.84 1010.27 1010.43 1010.84 1011.35 1011.96 1012.52 1012.84 1013.36 1013.76 1014.27 1014.73 1014.99
1014.12 1013.95 1013.91 1012.86 1012.00 1010.63 1009.28 1007.97 1007.59 1006.37 1006.76 1006.33 1005.16 1003.97 1003.68 1003.63 1004.23 1004.78 1005.64 1005.78 1005.89 1006.78 1007.59 1009.17 1009.63 1010.21 1010.55 1010.77 1011.08 1011.37 1011.48 1011.71 1012.07 1012.32 1012.69 1013.10 1013.60 1014.04
1016.10 1015.76 1014.79 1013.90 1012.94 1012.39 1010.57 1009.47 1008.72 1008.31 1007.64 1007.31 1006.74 1006.37 1004.93 1003.06 1003.09 1003.44 1004.42 1004.86 1005.96 1006.50 1006.81 1008.60 1009.86 1010.56 1011.19 1011.10 1011.21 1011.42 1011.09 1011.03 1011.23 1011.64 1012.17 1012.61 1013.09 1013.56
1016.82 1016.43 1015.54 1014.71 1013.75 1013.24 1011.86 1011.31 1010.27 1009.46 1008.68 1008.33 1007.92 1006.61 1006.72 1005.82 1004.59 1003.95 1003.87 1004.69 1005.89 1006.68 1006.95 1007.78 1009.60 1010.56 1011.32 1011.71 1011.44 1011.40 1011.44 1011.42 1011.47 1011.76 1012.26 1012.61 1013.14 1013.50
1017.63 1016.88 1016.04 1015.68 1014.90 1014.11 1013.29 1012.59 1011.49 1011.09 1009.76 1008.66 1007.77 1007.41 1006.75 1006.61 1005.15 1005.41 1005.38 1004.18 1005.09 1006.66 1006.23 1007.40 1008.86 1009.51 1011.43 1011.86 1011.66 1011.80 1011.90 1011.70 1012.03 1012.70 1013.05 1013.20 1013.20 1013.62
1018.19 1017.37 1016.93 1016.30 1015.55 1014.93 1014.37 1013.71 1013.22 1012.31 1011.36 1010.43 1009.36 1008.76 1007.71 1007.41 1006.27 1006.47 1006.29 1005.82 1004.92 1005.13 1004.38 1005.47 1007.29 1008.44 1009.38 1011.18 1011.77 1012.01 1012.05 1012.23 1012.64 1013.21 1013.24 1013.46 1013.76 1014.24
1018.94 1018.38 1017.78 1017.06 1016.37 1015.80 1015.03 1014.13 1013.19 1012.44 1011.66 1011.05 1010.48 1009.46 1008.42 1007.89 1007.79 1007.78 1007.32 1006.64 1006.01 1005.70 1005.22 1005.15 1005.51 1006.28 1007.85 1009.97 1011.01 1011.80 1012.15 1012.59 1012.75 1013.29 1013.45 1013.97 1014.49 1015.02
1019.89 1019.22 1018.52 1017.70 1016.84 1016.14 1015.62 1014.89 1013.86 1013.27 1012.55 1012.00 1011.64 1010.94 1010.31 1009.63 1009.22 1008.32 1007.93 1007.55 1006.80 1006.31 1005.94 1005.59 1005.13 1006.08 1006.84 1007.50 1009.02 1010.36 1011.63 1012.57 1012.89 1013.30 1013.66 1014.11 1014.62 1015.25
1020.08 1019.41 1018.94 1018.42 1017.67 1016.80 1016.01 1015.66 1015.28 1014.59 1013.81 1013.21 1012.65 1011.99 1011.26 1010.69 1009.94 1009.20 1009.00 1008.44 1007.26 1007.44 1007.21 1006.62 1006.18 1006.20 1007.55 1008.37 1008.99 1010.19 1010.59 1011.70 1012.81 1013.01 1013.89 1014.43 1014.83 1015.39
1020.92 1020.43 1019.93 1019.34 1018.55 1018.03 1017.55 1017.05 1016.33 1015.52 1014.62 1013.97 1013.30 1012.65 1012.02 1011.41 1010.66 1010.01 1009.73 1009.28 1008.90 1008.92 1008.28 1007.73 1007.52 1007.20 1007.59 1009.25 1009.50 1010.65 1011.57 1011.59 1012.85 1013.27 1013.87 1014.75 1015.38 1015.78
1021.54 1021.33 1021.10 1020.64 1020.12 1019.53 1018.82 1017.97 1017.21 1016.43 1015.52 1014.77 1014.20 1013.59 1012.96 1012.34 1011.89 1011.29 1010.57 1010.34 1009.99 1009.91 1009.38 1008.96 1008.84 1008.54 1009.06 1009.67 1009.89 1010.86 1011.88 1012.36 1013.08 1013.80 1014.21 1014.86 1015.58 1016.28
1022.73 1022.42 1022.16 1021.87 1021.31 1020.73 1020.03 1019.23 1018.38 1017.68 1016.69 1015.83 1015.03 1014.52 1014.03 1013.48 1013.00 1012.48 1011.93 1011.40 1011.08 1010.86 1010.42 1009.81 1009.53 1009.50 1009.78 1010.69 1011.56 1011.59 1011.74 1012.45 1013.61 1014.10 1014.61 1015.14 1015.77 1016.64
1023.95 1023.57 1023.43 1023.12 1022.43 1021.89 1021.33 1020.33 1019.47 1018.84 1018.00 1016.84 1016.18 1015.45 1014.77 1014.37 1013.89 1013.53 1013.02 1012.55 1012.09 1011.77 1011.35 1010.97 1010.84 1010.99 1010.93 1011.24 1012.31 1013.53 1012.98 1013.01 1013.71 1014.86 1015.35 1015.75 1016.65 1017.11
1025.04 1024.67 1024.26 1023.82 1023.53 1023.20 1022.53 1021.62 1020.75 1020.06 1019.39 1018.53 1017.26 1016.58 1015.84 1015.20 1014.74 1014.43 1014.04 1013.68 1013.30 1012.98 1012.54 1012.31 1012.48 1012.34 1012.30 1012.54 1013.30 1014.21 1014.59 1014.34 1014.69 1015.28 1015.83 1016.36 1016.82 1017.54
1025.99 1025.59 1025.19 1024.84 1024.53 1024.04 1023.40 1022.69 1021.90 1021.17 1020.55 1019.74 1018.85 1017.63 1016.76 1016.16 1015.56 1015.08 1014.89 1014.45 1014.20 1014.01 1013.70 1013.38 1013.07 1012.92 1013.17 1013.58 1014.24 1014.87 1015.56 1015.96 1016.18 1016.41 1016.63 1016.76 1016.97 1017.27
1026.48 1026.31 1026.00 1025.70 1025.43 1025.06 1024.40 1023.78 1023.13 1022.53 1021.78 1021.01 1020.06 1019.08 1017.87 1016.98 1016.31 1015.77 1015.37 1014.98 1014.73 1014.58 1014.42 1014.30 1014.02 1013.80 1014.10 1014.58 1015.04 1015.53 1016.13 1016.61 1016.88 1017.18 1017.53 1017.40 1017.53 1017.72
Wind_Speed
13 12 11 9 8 8 5 4 5 7 8 6 5 8 7 6 8 8 9 14 18 20 20 20 21 25 23 22 21 21 22 23 23 23 22 22 21 20
9 12 13 12 11 7 8 8 9 12 11 5 5 5 9 6 9 10 10 12 18 18 19 20 21 22 23 22 22 21 20 20 19 19 18 20 21 20
10 12 15 11 7 8 8 8 9 7 9 7 6 6 7 7 6 7 7 8 8 19 20 21 21 23 21 21 21 21 20 19 18 19 19 19 20 20
11 10 11 10 12 9 6 7 8 9 8 14 7 4 6 6 9 10 7 7 9 14 21 22 22 21 20 20 20 20 20 19 19 19 18 19 20 20
12 16 14 10 9 7 8 8 12 9 8 10 10 5 6 4 5 5 7 9 8 12 20 22 22 21 19 18 16 16 17 19 19 19 19 18 18 18
14 15 14 16 18 16 8 10 10 11 10 10 9 9 5 4 6 8 5 7 8 8 9 13 19 22 20 17 17 17 15 15 15 16 16 16 17 17
14 15 14 18 20 16 9 12 14 12 11 12 11 8 7 4 11 6 8 6 8 4 5 6 7 8 9 13 13 17 18 17 16 16 17 18 17 17
14 14 14 21 23 25 24 18 12 9 13 12 11 12 14 12 8 9 9 6 5 4 6 3 1 4 3 6 12 14 17 17 17 17 17 17 18 17
17 18 14 13 19 20 22 20 19 16 9 11 14 14 14 15 10 10 11 10 8 6 6 4 1 2 2 3 6 9 12 15 16 16 16 16 16 15
12 13 15 16 21 22 17 16 15 11 12 10 11 13 13 3 11 13 14 11 4 2 5 5 2 3 2 2 5 5 8 11 11 10 11 12 13 14
14 13 16 16 27 29 16 16 15 12 11 11 10 11 15 18 15 5 9 5 2 4 1 5 4 4 2 2 2 9 11 13 16 18 20 22 23 25
14 14 23 21 26 27 15 14 15 15 15 14 10 9 10 9 15 7 8 9 6 1 6 6 4 6 3 1 1 2 5 15 18 19 21 22 21 12
10 12 11 25 24 24 22 14 13 12 13 10 8 8 8 9 9 7 7 4 1 2 5 7 5 5 4 5 2 2 5 7 7 10 16 16 15 12
12 10 11 22 21 19 15 22 20 12 8 9 9 9 9 10 9 8 6 6 5 2 2 3 4 8 7 5 5 4 3 4 6 7 7 13 17 15
11 14 20 20 19 13 18 20 15 10 10 10 10 9 8 7 8 5 7 6 8 10 8 5 2 4 2 5 8 7 10 4 6 7 6 7 7 7
13 10 12 13 11 11 12 12 9 9 9 8 7 7 7 7 6 5 4 4 6 7 10 10 8 5 4 5 5 9 8 6 6 8 7 6 6 5
9 7 9 10 11 11 10 10 9 10 9 9 9 8 8 8 7 7 5 6 6 4 7 8 11 13 12 6 8 7 6 9 7 8 8 7 5 5
7 8 9 9 10 11 11 11 10 11 10 8 8 8 8 8 8 6 6 6 5 4 5 5 5 9 8 14 15 8 6 7 7 6 6 6 6 4
9 9 9 10 10 11 10 10 10 11 10 9 7 7 7 7 9 7 7 6 7 7 7 5 4 6 10 11 5 15 8 7 6 6 5 4 5 5
9 9 8 8 10 10 11 10 10 10 11 9 9 9 6 5 6 7 7 7 6 7 8 8 7 5 6 5 6 6 16 6 7 6 5 7 8 15
9 9 9 8 8 9 10 10 10 9 10 11 8 8 9 6 6 7 6 9 8 6 7 7 6 8 7 4 6 5 8 22 13 5 4 4 3 3
7 9 9 9 9 9 9 9 10 9 10 10 11 10 7 7 6 6 6 3 4 4 4 3 4 2 6 8 8 6 5 7 13 17 15 8 1 4
6 7 7 7 8 9 10 9 10 9 10 10 10 11 9 7 6 7 7 5 3 2 3 4 5 5 7 8 8 7 9 4 3 5 4 8 9 10
Wind_Direction
218 221 227 241 233 229 213 173 165 249 239 218 184 207 190 179 186 183 204 196 204 206 207 202 203 204 197 200 202 206 206 207 208 208 212 214 214 220
228 227 229 229 231 229 219 221 222 234 246 206 218 186 188 179 186 192 199 175 201 207 206 203 199 205 201 199 199 202 204 204 205 208 209 213 218 219
248 236 239 242 226 233 232 232 236 229 231 244 236 209 184 175 171 195 191 194 198 210 208 209 208 204 199 199 199 201 202 202 202 206 210 213 216 220
271 244 247 249 245 242 243 243 288 240 225 240 215 233 219 204 192 187 192 208 214 202 212 210 204 199 198 201 201 199 202 203 204 207 210 211 215 218
354 6 318 254 250 240 247 240 233 240 242 238 239 196 225 190 178 176 190 206 219 219 205 205 201 195 194 195 200 210 214 213 207 210 211 211 213 215
9 9 357 17 10 353 296 242 242 243 233 229 231 235 199 197 187 194 204 216 221 216 210 211 205 195 192 197 197 202 209 223 224 215 216 214 212 214
18 19 3 1 2 6 351 339 317 247 235 230 223 219 201 177 206 189 214 209 205 173 178 197 190 188 199 199 208 206 210 212 213 218 219 218 220 220
10 15 2 2 359 349 345 332 294 308 294 241 220 230 226 219 195 199 206 193 199 191 176 186 122 159 163 188 193 190 202 212 211 216 222 224 225 220
17 14 4 7 358 351 340 346 335 335 289 281 285 244 233 215 190 193 207 207 196 176 158 173 83 101 52 113 183 205 200 201 206 207 210 213 214 215
21 12 8 4 6 355 347 349 348 7 7 9 7 344 338 266 188 196 207 202 61 38 159 155 156 101 23 56 119 176 163 155 156 161 165 157 142 130
17 8 13 10 8 4 4 352 345 351 352 339 353 28 5 6 21 256 205 174 156 204 204 121 160 111 79 20 86 120 119 115 121 125 127 122 119 112
8 10 13 12 10 10 10 3 357 344 342 346 1 358 12 3 32 21 336 202 156 141 206 123 144 139 135 165 48 88 123 121 124 130 131 128 124 114
357 2 1 4 9 11 13 9 1 343 346 347 357 358 7 358 13 17 7 354 67 274 201 127 147 147 104 141 117 144 143 136 130 128 120 117 119 127
354 355 352 358 1 5 8 4 4 360 5 3 3 3 10 6 0 356 353 13 16 13 339 15 141 163 141 140 154 153 138 142 137 131 124 121 112 112
345 352 354 355 1 2 8 7 5 3 6 7 1 359 353 344 337 344 347 344 34 32 16 5 104 94 67 129 151 163 143 151 147 136 123 122 120 123
340 355 355 353 358 358 4 5 4 2 2 4 358 349 344 350 354 0 342 322 26 23 29 38 60 83 85 84 98 144 133 146 150 131 120 108 108 107
356 2 4 1 2 5 2 359 359 356 4 359 0 356 356 353 357 1 10 15 48 23 35 45 65 77 78 95 95 117 119 120 127 127 130 129 125 128
7 14 8 5 1 0 359 352 356 357 352 357 1 3 359 3 356 355 10 22 32 43 54 53 70 91 83 59 65 108 107 115 124 127 114 123 113 102
11 11 12 4 358 355 355 353 351 353 345 358 355 4 5 4 2 3 7 16 25 21 16 350 66 70 94 92 77 51 112 109 105 108 107 93 104 109
8 4 5 5 359 354 349 351 350 352 351 352 1 355 360 10 8 11 11 15 20 20 27 30 45 60 92 91 106 57 55 97 100 91 88 80 81 94
1 359 359 4 5 352 347 347 348 354 353 347 351 359 354 3 14 6 19 21 23 28 39 36 38 60 87 75 75 68 51 57 60 83 102 106 109 117
360 357 356 3 2 354 349 348 346 356 356 350 345 345 351 1 4 13 7 28 40 27 23 4 356 50 81 88 83 79 73 59 62 70 69 66 91 133
2 359 351 0 4 351 347 349 350 355 352 348 342 338 348 351 359 9 1 360 6 143 96 51 40 53 84 84 90 96 110 106 101 84 47 60 89 96